Location: Asheville, NC
(35.6000°N, 82.5500°W)
Time: 17:02:13
(UTC-05:00)

AO-85 - Pass Details

Date: 13 February 2018
Orbit: 507 x 779 km, 64.8° (Epoch: 15 February)

Event Time Altitude Azimuth Distance (km) Brightness Sun altitude
Exits shadow 05:58:46 - 209° (SSW) 1,818 ? -16.9°
Reaches altitude 10° 05:58:55 10° 209° (SSW) 1,757 ? -16.9°
Maximum altitude 06:02:50 89° 295° (WNW) 552 ? -16.1°
Drops below altitude 10° 06:07:04 10° 29° (NNE) 1,893 ? -15.2°
Sets 06:09:24 0° 30° (NNE) 2,842 ? -14.7°
